Regional Weather Roundup
Issued by NWS Upton, NY

Current Version | Previous Version | Text Only | Print | Product List | Glossary On
Versions: 1 2 3 4 5 6 7 8 9 10 11 12 13 14 15 16 17 18 19 20 21 22 23 24 25 26 27 28 29 30 31 32 33 34 35 36 37 38 39 40 41 42 43 44 45 46 47 48 49 50
702
ASUS41 KOKX 011908
RWROKX

REGIONAL WEATHER ROUNDUP
NATIONAL WEATHER SERVICE NEW YORK NY
200 PM EST THU DEC 01 2016

NOTE: "FAIR" INDICATES FEW OR NO CLOUDS BELOW 12,000 FEET WITH NO
SIGNIFICANT WEATHER AND/OR OBSTRUCTIONS TO VISIBILITY.

NYZ071-072-176-178-NJZ106-104-012000-
NEW YORK CITY METRO AREA

CITY           SKY/WX    TMP DP  RH WIND       PRES   REMARKS
Central Park   CLOUDY    51  32  48 W15G33    29.68R
Wall St Helipt CLOUDY    52  34  50 W12G26    29.67S
Bronx Bot Gard   N/A     50  32  50 SW28      29.67S
LaGuardia APRT PTSUNNY   54  32  43 W20G31    29.65R
Kennedy INTL   PTSUNNY   53  34  48 W26       29.67R
Breezy Point     N/A     50 N/A N/A W17G26      N/A
Newark/Liberty PTSUNNY   51  34  52 W23G30    29.67R
Teterboro      CLOUDY    51  32  48 W14G29    29.65R
$$

NYZ177-179-078>081-012000-
LONG ISLAND NEW YORK

CITY           SKY/WX    TMP DP  RH WIND       PRES   REMARKS
Jones Beach      N/A     52 N/A N/A W23G32      N/A
Matinecock PT  NOT AVBL
Farmingdale    MOSUNNY   54  34  46 W22G28    29.63R
MacArthur/ISP  PTSUNNY   55  36  48 W15G24    29.61R
Shirley        MOSUNNY   54  37  52 NW17G24   29.61S
Westhampton    SUNNY     56  37  49 W17       29.61S
Southampton      N/A     57  43  58 NW9       29.57R
Bridgehampton    N/A     55  41  58 E5        29.58S
East Hampton     N/A     55  37  51 W12G21    29.59R
Montauk          N/A     54  40  59 W13G22    29.58R
$$

NYZ052-065-067-012000-
HUDSON VALLEY

CITY           SKY/WX    TMP DP  RH WIND       PRES   REMARKS
White Plains   PTSUNNY   50  32  50 W17G26    29.63R
Newburgh       CLOUDY    46  36  66 W17G25    29.65R
Montgomery     CLOUDY    48  33  56 W8G20     29.64R
Poughkeepsie   CLOUDY    48  31  51 W14       29.63R
Albany         LGT RAIN  45  35  68 W7        29.62R
$$

NJZ001-105-106-008-010-013-015-019>022-104-012000-
NEW JERSEY

CITY           SKY/WX    TMP DP  RH WIND       PRES   REMARKS
Newark/Liberty PTSUNNY   51  34  52 W23G30    29.67R
Teterboro      CLOUDY    51  32  48 W14G29    29.65R
Caldwell       CLOUDY    50  31  48 W17G29    29.68R
Somerville     CLOUDY    49  33  54 W8G18     29.69R
Linden         CLOUDY    50  33  51 NW13G21   29.68S
Sussex         CLOUDY    47  33  58 VRB7      29.67R
Andover          N/A     46  31  55 VRB7      29.68R
Trenton        CLOUDY    51  32  48 W14G25    29.71R
Millville      PTSUNNY   55  37  50 W16G32    29.73R
Atlantic City  SUNNY     56  35  45 W21G28    29.71R
Wrightstown    CLOUDY    51  35  53 NW15      29.69R
Toms River     CLOUDY    53  37  54 NW17      29.70R
Belmar         PTSUNNY   51  35  54 W16       29.69R
$$

PAZ047>061-062-071-012000-
EASTERN PENNSYLVANIA

CITY           SKY/WX    TMP DP  RH WIND       PRES   REMARKS
Philadelphia   PTSUNNY   53  32  44 W21G30    29.74R
Allentown      CLOUDY    48  34  58 W10       29.71S
Scranton       CLOUDY    44  32  62 W13       29.67S
$$

CTZ002-004>006-009-010-012-RIZ004-006-007-MAZ004-011-015-012000-
SOUTHERN NEW ENGLAND
 IN CT

CITY           SKY/WX    TMP DP  RH WIND       PRES   REMARKS
Bradley INTL   PTSUNNY   52  32  46 NW15      29.58R
Hartford       CLOUDY    53  36  52 NW10      29.58R
Danbury        CLOUDY    49  34  56 NW14G21   29.63R
Wtrbury/Oxford PTSUNNY   50  30  46 W14G21    29.62R
Bridgeport     PTSUNNY   55  35  47 W16       29.60R
Meriden        CLOUDY    54  35  48 W9G18     29.59R
New Haven      CLOUDY    53  36  52 NW12G22   29.60R
Chester          N/A     54  37  54 W15       29.57R
Groton         PTSUNNY   61  40  45 W18G24    29.55R
Wilimantic     PTSUNNY   55  37  50 W13G23    29.56R

 IN RI

CITY           SKY/WX    TMP DP  RH WIND       PRES   REMARKS
Providence     MOSUNNY   57  37  47 W15       29.53S
Block Island   SUNNY     55  42  61 W17G26    29.56R
Westerly       MOSUNNY   57  41  55 W13G20    29.55S
 IN MA

CITY           SKY/WX    TMP DP  RH WIND       PRES   REMARKS
Boston         MOSUNNY   55  36  48 W21G28    29.50R
Worcester      CLOUDY    48  33  56 W18G25    29.53R
Westfield      CLOUDY    51  33  50 NW18G30   29.58R
Provincetown   MOSUNNY   56  46  69 W10       29.50R
Nantucket      SUNNY     55  48  77 W15G24    29.53R
$$

ANZ330-335-338-340-345-350-353-355-012000-
COASTAL MARINE OBSERVATIONS


STATION/POSITION TIME  SKY/WX   TEMP    WIND        PRES    VSBY  WAVE
                                AIR SEA DIR/SP/G                  HT/PER
                 (UTC)          (F)     (DEG/KT/KT) (MB)    (MI)  (FT/S)
NY HARB ENTRANCE 1750            53 55  280/ 21/ 23 1003.6          4/ 8
20 S FIRE ISLAND 1750            53 55  280/ 21/ 23 1003.1          7/ 8
GREAT SOUTH BAY  1830            52 47                N/A
23 SSW MONTAUK P NOT AVBL
15 E BARNEGAT LI 1830               55                N/A           5/ 8
HUDSON CANYON    1750            55 60              1003.6          8/ 9
KINGS POINT      1848            51 51              1003.7
EXECUTION ROCKS  1845            53     260/ 19/ 25   N/A
CENTRAL LI SOUND 1830            53 52  250/ 16/ 19   N/A           3/ 4
EASTERN LI SOUND NOT AVBL
ROBBINS REEF     1848            50     290/ 21/ 25 1004.6
$$


>>>>>>>>>>>>>>>>>>>>>>>>>>>> KEY <<<<<<<<<<<<<<<<<<<<<<<<<<<
>                                                          <
>     SKY/WX - Sky Condition/Present Weather               <
>     TMP    - Temperature in Fahrenheit                   <
>     DP     - Dew Point in Fahrenheit                     <
>     RH     - Relative Humidity in Percent                <
>     WIND   - Direction (from) and Speed in MPH           <
>     PRES   - Mean Sea Level Pressure (inches of Hg)      <
>     WCI    - Wind Chill Index                            <
>     VSB    - VISIBILITY IN MILES                         <
>     HX     - HEAT INDEX                                  <
>     TC     - TEMPERATURE IN CELSIUS                      <
>     VRB    - VARIABLE WIND DIRECTION                     <
>                                                          <
>>>>>>>>>>>>>>>>>>>>>>>>>>>> KEY <<<<<<<<<<<<<<<<<<<<<<<<<<<




USA.gov is the U.S. government's official web portal to all federal, state and local government web resources and services.